Terminal Aerodrome Forecast
Issued by NWS

Home | Current Version | Previous Version | Text Only | Print | Product List | Glossary On
Versions: 1 2 3 4 5 6 7 8 9 10 11 12 13 14 15 16 17 18 19 20 21 22 23 24 25 26 27 28 29 30 31 32 33 34 35 36 37
000
FTUS45 KBOI 020704 AAA
TAFBKE
TAF AMD
KBKE 020704Z 0207/0306 VRB10G20KT P6SM VCTS FEW100CB SCT150
     FM020800 VRB04KT P6SM SCT150
     FM022100 30007KT P6SM BKN120=

USA.gov is the U.S. government's official web portal to all federal, state and local government web resources and services.